Regional Weather Roundup
Issued by NWS Northern Indiana

Home | Current Version | Previous Version | Graphics & Text | Print | Product List | Glossary On
Versions: 1 2 3 4 5 6 7 8 9 10 11 12 13 14 15 16 17 18 19 20 21 22 23 24 25 26 27 28 29 30 31 32 33 34 35 36 37 38 39 40 41 42 43 44 45 46 47 48 49 50
000
ASUS43 KIWX 222100
RWRIWX

KIWX WEATHER ROUNDUP
NATIONAL WEATHER SERVICE NORTHERN INDIANA
400 PM EST WED FEB 22 2017

NOTE: "FAIR" INDICATES FEW OR NO CLOUDS BELOW 12,000 FEET WITH NO
SIGNIFICANT WEATHER AND/OR OBSTRUCTIONS TO VISIBILITY.

* THESE STATIONS ARE NOT UNDER NWS QUALITY CONTROL. THEY ALSO MAY NOT
  REPORT WEATHER SUCH AS PRECIPITATION OR FOG.

INZ001>027-222200-
NORTHERN INDIANA

CITY           SKY/WX    TMP DP  RH WIND       PRES   REMARKS
GARY*          PTSUNNY   64  55  72 S12       29.70F HAZE
MICHIGAN CITY* PTSUNNY   63  54  72 SW13      29.72F
LAPORTE*       PTSUNNY   64  55  74 SW9       29.72F
KNOX*          CLOUDY    63  34  34 SW12      29.72F
SOUTH BEND     CLOUDY    61  54  77 S10       29.74F
ELKHART*       CLOUDY    61  54  77 S10       29.74F
GOSHEN         CLOUDY    63  52  67 SW13      29.75S
WARSAW*        CLOUDY    61  52  72 SW7       29.75F
ANGOLA*        CLOUDY    61  52  72 S8        29.76S
FORT WAYNE     CLOUDY    62  53  72 SW12      29.77S
PERU/GRISSOM   CLOUDY    62  58  87 S12       29.75F

$$
INZ028>050-222200-
CENTRAL INDIANA

CITY           SKY/WX    TMP DP  RH WIND       PRES   REMARKS
LAFAYETTE      PTSUNNY   64  55  72 S13G20    29.75F
KOKOMO*        CLOUDY    62  55  77 SW12      29.77F
MUNCIE*        CLOUDY    63  54  72 SW13      29.78S
INDIANAPOLIS   PTSUNNY   67  54  63 S10       29.77S

$$
MIZ043>046-050>051-056>058-064>065-071>073-077>080-222200-
SOUTHWEST LOWER MICHIGAN

CITY           SKY/WX    TMP DP  RH WIND       PRES   REMARKS
BATTLE CREEK   CLOUDY    60  54  80 S13       29.74F
BENTON HARBOR  PTSUNNY   63  53  70 S13       29.70F
COLDWATER*     CLOUDY    61  54  76 S7        29.75F
HILLSDALE*     CLOUDY    59  52  77 SW7       29.75F
HOLLAND        SUNNY     64  53  67 SW14      29.69F
GRAND RAPIDS   MOSUNNY   64  53  67 S16       29.68F
KALAMAZOO      MOSUNNY   61  51  70 S13       29.73F
STURGIS*       CLOUDY    61  54  77 S7        29.74F
THREE RIVERS*  CLOUDY    60  53  77 SW8       29.74F

$$
OHZ001>008-015>018-024>025-222200-
NORTHWEST OHIO

CITY           SKY/WX    TMP DP  RH WIND       PRES   REMARKS
DEFIANCE       CLOUDY    62  53  72 S7        29.76F
FINDLAY        CLOUDY    62  53  72 S12       29.77F
TOLEDO EXPRESS CLOUDY    61  55  81 S12       29.77S
TOLEDO METCALF CLOUDY    62  55  77 S12       29.78F
LIMA           CLOUDY    61  56  83 S12       29.78F

$$
AND FOR LAKE MICHIGAN COASTAL AND OPEN LAKE BUOY OBSERVATIONS

STATION/POSITION TEMP    WIND        PRES    VSBY  WAVE
                 AIR SEA DIR/SP/G                  HT/PER
                 (F)     (DEG/KT/KT) (MB)    (MI)  (FT/S)
CALUMET HARBOR    61     180/ 12/ 18 1005.0F
MICHIGAN CITY     60     190/ 19/ 21   N/A
BURNS HARBOR      61     190/ 13/ 19 1006.4F

$$
&&




USA.gov is the U.S. government's official web portal to all federal, state and local government web resources and services.